| time (UTC) | temp F | wind direction | speed knots | gust knots | rain 1hr in | rain 24hr in | rain mn in | humidity % | barometer mb |
| 20260507063018 | 51 | 195 | 0.0 | 0.9 | 0.00 | 0.00 | 0.00 | 1 | 1021.6 |
| 20260507061523 | 51 | 229 | 0.0 | 0.9 | 0.00 | 0.00 | 0.00 | 1 | 1021.7 |
| 20260507060026 | 51 | 232 | 0.0 | 0.0 | 0.00 | 0.00 | 0.00 | 1 | 1021.6 |
| 20260507054525 | 51 | 212 | 0.0 | 0.0 | 0.00 | 0.00 | 0.00 | 1 | 1021.6 |
| 20260507053030 | 51 | 222 | 0.0 | 0.0 | 0.00 | 0.00 | 0.00 | 1 | 1021.5 |
| 20260507051533 | 52 | 188 | 0.0 | 0.0 | 0.00 | 0.00 | 0.00 | 13 | 1021.5 |
| 20260507050045 | 52 | 283 | 0.0 | 0.0 | 0.00 | 0.00 | 0.00 | 28 | 1021.4 |
| 20260507044546 | 53 | 294 | 0.0 | 6.1 | 0.00 | 0.00 | 0.00 | 33 | 1021.3 |
| 20260507043044 | 53 | 289 | 0.0 | 6.1 | 0.00 | 0.00 | 0.00 | 34 | 1021.3 |
| 20260507041600 | 54 | 238 | 0.0 | 1.7 | 0.00 | 0.00 | 0.00 | 33 | 1021.1 |
| 20260507040054 | 53 | 256 | 0.0 | 0.0 | 0.00 | 0.00 | 0.00 | 25 | 1021.0 |
| 20260507034603 | 54 | 256 | 0.0 | 0.9 | 0.00 | 0.00 | 0.00 | 32 | 1020.8 |
| 20260507033100 | 55 | 262 | 0.0 | 0.0 | 0.00 | 0.00 | 0.00 | 40 | 1020.6 |
| 20260507031604 | 56 | 273 | 0.0 | 0.0 | 0.00 | 0.00 | 0.00 | 47 | 1020.5 |
| 20260507030004 | 57 | 312 | 0.0 | 2.6 | 0.00 | 0.00 | 0.00 | 54 | 1020.5 |
| 20260507024508 | 58 | 271 | 0.0 | 2.6 | 0.00 | 0.00 | 0.00 | 60 | 1020.4 |
| 20260507023009 | 59 | 342 | 0.0 | 0.9 | 0.00 | 0.00 | 0.00 | 64 | 1020.2 |
| 20260507021513 | 61 | 29 | 0.9 | 4.3 | 0.00 | 0.00 | 0.00 | 65 | 1020.3 |
| 20260507020017 | 62 | 8 | 0.9 | 4.3 | 0.00 | 0.00 | 0.00 | 65 | 1020.3 |
| 20260507014522 | 63 | 341 | 0.0 | 4.3 | 0.00 | 0.00 | 0.00 | 64 | 1020.4 |
| 20260507013025 | 64 | 39 | 0.0 | 3.5 | 0.00 | 0.00 | 0.00 | 64 | 1020.3 |
| 20260507011538 | 64 | 343 | 1.7 | 6.1 | 0.00 | 0.00 | 0.00 | 63 | 1020.3 |
| 20260507010042 | 65 | 1 | 0.9 | 5.2 | 0.00 | 0.00 | 0.00 | 62 | 1020.3 |
| 20260507004538 | 64 | 321 | 0.0 | 6.1 | 0.00 | 0.00 | 0.00 | 63 | 1020.3 |
| 20260507003051 | 65 | 354 | 0.0 | 7.8 | 0.00 | 0.00 | 0.00 | 62 | 1020.2 |
| 20260507001605 | 66 | 273 | 0.0 | 5.2 | 0.00 | 0.00 | 0.00 | 62 | 1020.1 |
| 20260507000124 | 66 | 4 | 0.9 | 5.2 | 0.00 | 0.00 | 0.00 | 63 | 1020.1 |
| 20260506234627 | 66 | 5 | 2.6 | 8.7 | 0.00 | 0.00 | 0.00 | 62 | 1020.0 |
| 20260506233003 | 66 | 257 | 0.0 | 7.8 | 0.00 | 0.00 | 0.00 | 62 | 1020.0 |
| 20260506231507 | 66 | 5 | 2.6 | 9.6 | 0.00 | 0.00 | 0.00 | 62 | 1020.1 |
| 20260506230011 | 67 | 328 | 2.6 | 10.4 | 0.00 | 0.00 | 0.00 | 61 | 1020.2 |
| 20260506224515 | 67 | 18 | 1.7 | 8.7 | 0.00 | 0.00 | 0.00 | 61 | 1020.3 |
| 20260506223019 | 67 | 12 | 3.5 | 6.1 | 0.00 | 0.00 | 0.00 | 62 | 1020.4 |
| 20260506221522 | 66 | 58 | 0.0 | 6.1 | 0.00 | 0.00 | 0.00 | 62 | 1020.4 |
| 20260506220030 | 66 | 51 | 1.7 | 7.0 | 0.00 | 0.00 | 0.00 | 62 | 1020.5 |
| 20260506214531 | 66 | 37 | 4.3 | 9.6 | 0.00 | 0.00 | 0.00 | 63 | 1020.5 |
| 20260506213042 | 66 | 45 | 0.9 | 6.1 | 0.00 | 0.00 | 0.00 | 62 | 1020.6 |
| 20260506211545 | 67 | 33 | 3.5 | 7.0 | 0.00 | 0.00 | 0.00 | 62 | 1020.6 |
| 20260506210047 | 67 | 195 | 0.0 | 3.5 | 0.00 | 0.00 | 0.00 | 62 | 1020.6 |
| 20260506204547 | 64 | 41 | 0.9 | 7.0 | 0.00 | 0.00 | 0.00 | 62 | 1020.8 |
| 20260506203052 | 64 | 101 | 0.9 | 7.0 | 0.00 | 0.00 | 0.00 | 63 | 1020.9 |
| 20260506201554 | 64 | 56 | 3.5 | 10.4 | 0.00 | 0.00 | 0.00 | 62 | 1020.8 |
| 20260506200058 | 66 | 345 | 1.7 | 7.0 | 0.00 | 0.00 | 0.00 | 63 | 1020.9 |
| 20260506194602 | 65 | 10 | 3.5 | 5.2 | 0.00 | 0.00 | 0.00 | 62 | 1021.0 |
| 20260506193001 | 66 | 273 | 0.0 | 4.3 | 0.00 | 0.00 | 0.00 | 62 | 1021.0 |
| 20260506191504 | 64 | 203 | 2.6 | 8.7 | 0.00 | 0.00 | 0.00 | 62 | 1021.0 |
| 20260506190008 | 64 | 188 | 2.6 | 7.0 | 0.00 | 0.00 | 0.00 | 61 | 1021.0 |
| 20260506184512 | 64 | 134 | 2.6 | 7.0 | 0.00 | 0.00 | 0.00 | 61 | 1021.0 |
| 20260506183016 | 64 | 156 | 0.9 | 5.2 | 0.00 | 0.00 | 0.00 | 60 | 1021.0 |
| 20260506181535 | 63 | 158 | 0.0 | 1.7 | 0.00 | 0.00 | 0.00 | 60 | 1021.2 |
| 20260506180025 | 63 | 145 | 1.7 | 4.3 | 0.00 | 0.00 | 0.00 | 60 | 1021.1 |
| 20260506174533 | 62 | 155 | 1.7 | 4.3 | 0.00 | 0.00 | 0.00 | 57 | 1020.9 |
| 20260506173055 | 61 | 114 | 0.9 | 4.3 | 0.00 | 0.00 | 0.00 | 54 | 1020.8 |
| 20260506171542 | 60 | 225 | 0.0 | 3.5 | 0.00 | 0.00 | 0.00 | 56 | 1021.3 |
| 20260506170052 | 61 | 158 | 0.0 | 3.5 | 0.00 | 0.00 | 0.00 | 53 | 1021.2 |
| 20260506164544 | 59 | 80 | 0.0 | 2.6 | 0.00 | 0.00 | 0.00 | 42 | 1021.0 |
| 20260506163054 | 58 | 139 | 0.0 | 1.7 | 0.00 | 0.00 | 0.00 | 30 | 1021.4 |
| 20260506161549 | 56 | 95 | 0.0 | 3.5 | 0.00 | 0.00 | 0.00 | 5 | 1021.3 |
| 20260506160052 | 55 | 169 | 0.0 | 1.7 | 0.00 | 0.00 | 0.00 | 1 | 1021.0 |
| 20260506154612 | 54 | 127 | 0.0 | 3.5 | 0.00 | 0.00 | 0.00 | 1 | 1020.7 |
| 20260506153100 | 54 | 143 | 0.0 | 2.6 | 0.00 | 0.00 | 0.00 | 1 | 1021.1 |
| 20260506151603 | 54 | 141 | 0.0 | 0.9 | 0.00 | 0.00 | 0.00 | 1 | 1021.3 |
| 20260506150010 | 54 | 148 | 0.0 | 1.7 | 0.00 | 0.00 | 0.00 | 1 | 1021.1 |
| 20260506144508 | 54 | 250 | 0.0 | 0.9 | 0.00 | 0.00 | 0.00 | 1 | 1021.3 |
| 20260506143022 | 53 | 225 | 0.0 | 1.7 | 0.00 | 0.00 | 0.00 | 1 | 1021.0 |
| 20260506141514 | 53 | 219 | 0.0 | 1.7 | 0.00 | 0.00 | 0.00 | 1 | 1020.7 |
| 20260506140020 | 53 | 229 | 0.0 | 1.7 | 0.00 | 0.00 | 0.00 | 1 | 1020.3 |
| 20260506134523 | 53 | 209 | 0.0 | 1.7 | 0.00 | 0.00 | 0.00 | 1 | 1020.2 |
| 20260506133034 | 53 | 233 | 0.0 | 1.7 | 0.00 | 0.00 | 0.00 | 1 | 1020.1 |
| 20260506131529 | 53 | 205 | 0.0 | 0.0 | 0.00 | 0.00 | 0.00 | 1 | 1020.2 |
| 20260506130035 | 53 | 205 | 0.0 | 2.6 | 0.00 | 0.00 | 0.00 | 1 | 1019.9 |
| 20260506124536 | 53 | 176 | 0.0 | 0.9 | 0.00 | 0.00 | 0.00 | 1 | 1019.9 |
| 20260506123040 | 53 | 121 | 0.0 | 0.0 | 0.00 | 0.00 | 0.00 | 1 | 1019.8 |
| 20260506121551 | 53 | 122 | 0.0 | 0.0 | 0.00 | 0.00 | 0.00 | 1 | 1020.0 |
| 20260506120054 | 53 | 121 | 0.0 | 0.9 | 0.00 | 0.00 | 0.00 | 1 | 1019.8 |
| 20260506114605 | 53 | 124 | 0.0 | 0.0 | 0.00 | 0.00 | 0.00 | 1 | 1019.7 |
| 20260506113102 | 53 | 144 | 0.0 | 0.0 | 0.00 | 0.00 | 0.00 | 1 | 1019.6 |
| 20260506111502 | 52 | 204 | 0.0 | 0.0 | 0.00 | 0.00 | 0.00 | 1 | 1019.3 |
| 20260506110006 | 52 | 204 | 0.0 | 0.0 | 0.00 | 0.00 | 0.00 | 1 | 1019.2 |
| 20260506104527 | 53 | 204 | 0.0 | 0.0 | 0.00 | 0.00 | 0.00 | 1 | 1018.9 |
| 20260506103014 | 53 | 204 | 0.0 | 0.0 | 0.00 | 0.00 | 0.00 | 1 | 1018.8 |
| 20260506101518 | 52 | 200 | 0.0 | 1.7 | 0.00 | 0.00 | 0.00 | 1 | 1018.6 |
| 20260506100022 | 52 | 193 | 0.0 | 0.9 | 0.00 | 0.00 | 0.00 | 1 | 1018.5 |
| 20260506094532 | 52 | 169 | 0.0 | 0.9 | 0.00 | 0.00 | 0.00 | 1 | 1018.4 |
| 20260506093028 | 52 | 156 | 0.0 | 0.0 | 0.00 | 0.00 | 0.00 | 1 | 1018.2 |
| 20260506091532 | 52 | 156 | 0.0 | 0.0 | 0.00 | 0.00 | 0.00 | 1 | 1018.2 |
| 20260506090042 | 51 | 156 | 0.0 | 0.0 | 0.00 | 0.00 | 0.00 | 1 | 1018.2 |
| 20260506084537 | 52 | 156 | 0.0 | 0.0 | 0.00 | 0.00 | 0.00 | 1 | 1018.1 |
| 20260506083043 | 52 | 156 | 0.0 | 0.0 | 0.00 | 0.00 | 0.00 | 1 | 1018.0 |
| 20260506081544 | 53 | 156 | 0.0 | 0.0 | 0.00 | 0.00 | 0.00 | 1 | 1017.9 |
| 20260506073055 | 55 | 193 | 0.0 | 1.7 | 0.00 | 0.00 | 0.00 | 1 | 1017.9 |
| 20260506071623 | 55 | 205 | 0.0 | 0.9 | 0.00 | 0.00 | 0.00 | 1 | 1017.8 |
| 20260506070106 | 56 | 138 | 0.0 | 0.0 | 0.00 | 0.00 | 0.00 | 3 | 1017.7 |